Location: *
(58.4167°N, 22.5000°E)
Time: 21:49:32
(UTC+00:00)

Cosmos 2082 Rocket - Pass Details

Date: 22 September 2019
Orbit: 831 x 855 km, 71.0° (Epoch: 19 October)

Event Time Altitude Azimuth Distance (km) Brightness Sun altitude
Rises 19:43:33 0° 309° (NW) 3,433 6.8 -23.6°
Reaches altitude 10° 19:46:23 10° 321° (NW) 2,498 5.7 -23.8°
Maximum altitude 19:51:17 28° 20° (NNE) 1,564 3.8 -24.3°
Enters shadow 19:54:25 18° 65° (ENE) 2,000 4.0 -24.5°
